Time,TemperatureF,DewpointF,PressureIn,WindDirection,WindDirectionDegrees,WindSpeedMPH,WindSpeedGustMPH,Humidity,HourlyPrecipIn,Conditions,Clouds,dailyrainin,SolarRadiationWatts/m^2,SoftwareType,DateUTC
2013-09-04 00:22:00,49.0,44.0,-100.00,NNW,346,3.0,4.0,83,0.00,,,0.00,0.000000,,2013-09-04 06:22:00,
2013-09-04 00:32:00,49.0,44.0,-100.00,NNW,346,3.0,4.0,83,0.00,,,0.00,0.000000,,2013-09-04 06:32:00,
2013-09-04 00:42:00,49.0,44.0,-100.00,NNW,346,3.0,4.0,83,0.00,,,0.00,0.000000,,2013-09-04 06:42:00,
2013-09-04 00:52:00,49.0,44.0,-100.00,NNW,346,3.0,4.0,83,0.00,,,0.00,0.000000,,2013-09-04 06:52:00,
2013-09-04 01:22:00,50.0,43.0,-100.00,NW,324,2.0,6.0,78,0.00,,,0.00,0.000000,,2013-09-04 07:22:00,
2013-09-04 01:32:00,50.0,43.0,-100.00,NW,324,2.0,6.0,78,0.00,,,0.00,0.000000,,2013-09-04 07:32:00,
2013-09-04 01:42:00,50.0,43.0,-100.00,NW,324,2.0,6.0,78,0.00,,,0.00,0.000000,,2013-09-04 07:42:00,
2013-09-04 01:52:00,50.0,43.0,-100.00,NW,324,2.0,6.0,78,0.00,,,0.00,0.000000,,2013-09-04 07:52:00,
2013-09-04 02:22:00,47.0,43.0,-100.00,SE,133,3.0,4.0,86,0.00,,,0.00,0.000000,,2013-09-04 08:22:00,
2013-09-04 02:32:00,47.0,43.0,-100.00,SE,133,3.0,4.0,86,0.00,,,0.00,0.000000,,2013-09-04 08:32:00,
2013-09-04 02:43:00,47.0,43.0,-100.00,SE,133,3.0,4.0,86,0.00,,,0.00,0.000000,,2013-09-04 08:43:00,
2013-09-04 02:52:00,47.0,43.0,-100.00,SE,133,3.0,4.0,86,0.00,,,0.00,0.000000,,2013-09-04 08:52:00,
2013-09-04 03:22:00,46.0,44.0,-100.00,WNW,295,4.0,5.0,93,0.00,,,0.00,0.000000,,2013-09-04 09:22:00,
2013-09-04 03:33:00,46.0,44.0,-100.00,WNW,295,4.0,5.0,93,0.00,,,0.00,0.000000,,2013-09-04 09:33:00,
2013-09-04 03:53:00,46.0,44.0,-100.00,WNW,295,4.0,5.0,93,0.00,,,0.00,0.000000,,2013-09-04 09:53:00,
2013-09-04 04:23:00,46.0,44.0,-100.00,West,271,0.0,5.0,93,0.00,,,0.00,0.000000,,2013-09-04 10:23:00,
2013-09-04 04:33:00,46.0,44.0,-100.00,West,271,0.0,5.0,93,0.00,,,0.00,0.000000,,2013-09-04 10:33:00,
2013-09-04 04:52:00,46.0,44.0,-100.00,West,271,0.0,5.0,93,0.00,,,0.00,0.000000,,2013-09-04 10:52:00,
2013-09-04 05:22:00,46.0,44.0,-100.00,SE,143,1.0,3.0,91,0.00,,,0.00,0.000000,,2013-09-04 11:22:00,
2013-09-04 05:33:00,46.0,44.0,-100.00,SE,143,1.0,3.0,91,0.00,,,0.00,0.000000,,2013-09-04 11:33:00,
2013-09-04 05:42:00,46.0,44.0,-100.00,SE,143,1.0,3.0,91,0.00,,,0.00,0.000000,,2013-09-04 11:42:00,
2013-09-04 05:51:00,46.0,44.0,-100.00,SE,143,1.0,3.0,91,0.00,,,0.00,0.000000,,2013-09-04 11:51:00,
2013-09-04 06:21:00,45.0,43.0,-100.00,East,89,2.0,3.0,93,0.00,,,0.00,0.000000,,2013-09-04 12:21:00,
2013-09-04 06:32:00,45.0,43.0,-100.00,East,89,2.0,3.0,93,0.00,,,0.00,0.000000,,2013-09-04 12:32:00,
2013-09-04 06:52:00,45.0,43.0,-100.00,East,89,2.0,3.0,93,0.00,,,0.00,0.000000,,2013-09-04 12:52:00,
2013-09-04 07:22:00,45.0,43.0,-100.00,NNE,21,1.0,3.0,93,0.00,,,0.00,1.000000,,2013-09-04 13:22:00,
2013-09-04 07:32:00,45.0,43.0,-100.00,NNE,21,1.0,3.0,93,0.00,,,0.00,1.000000,,2013-09-04 13:32:00,
2013-09-04 08:21:00,47.0,44.0,-100.00,South,185,1.0,3.0,90,0.00,,,0.00,37.000000,,2013-09-04 14:21:00,
2013-09-04 08:32:00,47.0,44.0,-100.00,South,185,1.0,3.0,90,0.00,,,0.00,37.000000,,2013-09-04 14:32:00,
2013-09-04 08:42:00,47.0,44.0,-100.00,South,185,1.0,3.0,90,0.00,,,0.00,37.000000,,2013-09-04 14:42:00,
2013-09-04 08:52:00,47.0,44.0,-100.00,South,185,1.0,3.0,90,0.00,,,0.00,37.000000,,2013-09-04 14:52:00,
2013-09-04 09:22:00,51.0,45.0,-100.00,NW,314,2.0,4.0,80,0.00,,,0.00,135.000000,,2013-09-04 15:22:00,
2013-09-04 09:33:00,51.0,45.0,-100.00,NW,314,2.0,4.0,80,0.00,,,0.00,135.000000,,2013-09-04 15:33:00,
2013-09-04 09:43:00,51.0,45.0,-100.00,NW,314,2.0,4.0,80,0.00,,,0.00,135.000000,,2013-09-04 15:43:00,
2013-09-04 09:53:00,51.0,45.0,-100.00,NW,314,2.0,4.0,80,0.00,,,0.00,135.000000,,2013-09-04 15:53:00,
2013-09-04 10:23:00,55.0,47.0,-100.00,ENE,71,2.0,4.0,75,0.00,,,0.00,283.000000,,2013-09-04 16:23:00,
2013-09-04 10:34:00,55.0,47.0,-100.00,ENE,71,2.0,4.0,75,0.00,,,0.00,283.000000,,2013-09-04 16:34:00,
2013-09-04 10:43:00,55.0,47.0,-100.00,ENE,71,2.0,4.0,75,0.00,,,0.00,283.000000,,2013-09-04 16:43:00,
2013-09-04 10:53:00,55.0,47.0,-100.00,ENE,71,2.0,4.0,75,0.00,,,0.00,283.000000,,2013-09-04 16:53:00,
2013-09-04 11:23:00,61.0,46.0,-100.00,ENE,63,3.0,6.0,58,0.00,,,0.00,519.000000,,2013-09-04 17:23:00,
2013-09-04 11:34:00,61.0,46.0,-100.00,ENE,63,3.0,6.0,58,0.00,,,0.00,519.000000,,2013-09-04 17:34:00,
2013-09-04 11:42:00,61.0,46.0,-100.00,ENE,63,3.0,6.0,58,0.00,,,0.00,519.000000,,2013-09-04 17:42:00,
2013-09-04 11:52:00,61.0,46.0,-100.00,ENE,63,3.0,6.0,58,0.00,,,0.00,519.000000,,2013-09-04 17:52:00,
2013-09-04 12:22:00,69.0,44.0,-100.00,East,80,4.0,7.0,41,0.00,,,0.00,915.000000,,2013-09-04 18:22:00,
2013-09-04 12:32:00,69.0,44.0,-100.00,East,80,4.0,7.0,41,0.00,,,0.00,915.000000,,2013-09-04 18:32:00,
2013-09-04 12:42:00,69.0,44.0,-100.00,East,80,4.0,7.0,41,0.00,,,0.00,915.000000,,2013-09-04 18:42:00,
2013-09-04 12:52:00,69.0,44.0,-100.00,East,80,4.0,7.0,41,0.00,,,0.00,915.000000,,2013-09-04 18:52:00,
2013-09-04 13:22:00,71.0,40.0,-100.00,NNE,16,4.0,9.0,33,0.00,,,0.00,827.000000,,2013-09-04 19:22:00,
2013-09-04 13:32:00,71.0,40.0,-100.00,NNE,16,4.0,9.0,33,0.00,,,0.00,827.000000,,2013-09-04 19:32:00,
2013-09-04 13:42:00,71.0,40.0,-100.00,NNE,16,4.0,9.0,33,0.00,,,0.00,827.000000,,2013-09-04 19:42:00,
2013-09-04 13:52:00,71.0,40.0,-100.00,NNE,16,4.0,9.0,33,0.00,,,0.00,827.000000,,2013-09-04 19:52:00,
2013-09-04 14:22:00,73.0,46.0,-100.00,NW,319,8.0,15.0,38,0.00,,,0.00,750.000000,,2013-09-04 20:22:00,
2013-09-04 14:32:00,73.0,46.0,-100.00,NW,319,8.0,15.0,38,0.00,,,0.00,750.000000,,2013-09-04 20:32:00,
2013-09-04 14:43:00,73.0,46.0,-100.00,NW,319,8.0,15.0,38,0.00,,,0.00,750.000000,,2013-09-04 20:43:00,
2013-09-04 14:53:00,73.0,46.0,-100.00,NW,319,8.0,15.0,38,0.00,,,0.00,750.000000,,2013-09-04 20:53:00,
2013-09-04 15:22:00,67.0,41.0,-100.00,NNE,16,5.0,12.0,39,0.00,,,0.00,415.000000,,2013-09-04 21:22:00,
2013-09-04 15:34:00,67.0,41.0,-100.00,NNE,16,5.0,12.0,39,0.00,,,0.00,415.000000,,2013-09-04 21:34:00,
2013-09-04 15:44:00,67.0,41.0,-100.00,NNE,16,5.0,12.0,39,0.00,,,0.00,415.000000,,2013-09-04 21:44:00,
2013-09-04 15:54:00,67.0,41.0,-100.00,NNE,16,5.0,12.0,39,0.00,,,0.00,415.000000,,2013-09-04 21:54:00,
2013-09-04 16:23:00,59.0,42.0,-100.00,North,355,6.0,10.0,53,0.00,,,0.00,33.000000,,2013-09-04 22:23:00,
2013-09-04 16:33:00,59.0,42.0,-100.00,North,355,6.0,10.0,53,0.00,,,0.00,33.000000,,2013-09-04 22:33:00,
2013-09-04 16:43:00,59.0,42.0,-100.00,North,355,6.0,10.0,53,0.00,,,0.00,33.000000,,2013-09-04 22:43:00,
2013-09-04 16:54:00,59.0,42.0,-100.00,North,355,6.0,10.0,53,0.00,,,0.00,33.000000,,2013-09-04 22:54:00,
2013-09-04 17:22:00,56.0,46.0,-100.00,NNW,339,5.0,13.0,69,0.00,,,0.00,50.000000,,2013-09-04 23:22:00,
2013-09-04 17:34:00,56.0,46.0,-100.00,NNW,339,5.0,13.0,69,0.00,,,0.00,50.000000,,2013-09-04 23:34:00,
2013-09-04 17:42:00,56.0,46.0,-100.00,NNW,339,5.0,13.0,69,0.00,,,0.00,50.000000,,2013-09-04 23:42:00,
2013-09-04 17:52:00,56.0,46.0,-100.00,NNW,339,5.0,13.0,69,0.00,,,0.00,50.000000,,2013-09-04 23:52:00,
2013-09-04 18:22:00,60.0,43.0,-100.00,ESE,115,2.0,9.0,54,0.00,,,0.00,213.000000,,2013-09-05 00:22:00,
2013-09-04 18:32:00,60.0,43.0,-100.00,ESE,115,2.0,9.0,54,0.00,,,0.00,213.000000,,2013-09-05 00:32:00,
2013-09-04 18:42:00,60.0,43.0,-100.00,ESE,115,2.0,9.0,54,0.00,,,0.00,213.000000,,2013-09-05 00:42:00,
2013-09-04 18:52:00,60.0,43.0,-100.00,ESE,115,2.0,9.0,54,0.00,,,0.00,213.000000,,2013-09-05 00:52:00,
2013-09-04 19:22:00,54.0,45.0,-100.00,SE,145,4.0,14.0,72,0.00,,,0.00,48.000000,,2013-09-05 01:22:00,
2013-09-04 19:32:00,54.0,45.0,-100.00,SE,145,4.0,14.0,72,0.00,,,0.00,48.000000,,2013-09-05 01:32:00,
2013-09-04 19:42:00,54.0,45.0,-100.00,SE,145,4.0,14.0,72,0.00,,,0.00,48.000000,,2013-09-05 01:42:00,
2013-09-04 19:52:00,54.0,45.0,-100.00,SE,145,4.0,14.0,72,0.00,,,0.00,48.000000,,2013-09-05 01:52:00,
2013-09-04 20:22:00,53.0,43.0,-100.00,SW,219,2.0,8.0,68,0.00,,,0.00,4.000000,,2013-09-05 02:22:00,
2013-09-04 20:32:00,53.0,43.0,-100.00,SW,219,2.0,8.0,68,0.00,,,0.00,4.000000,,2013-09-05 02:32:00,
2013-09-04 20:42:00,53.0,43.0,-100.00,SW,219,2.0,8.0,68,0.00,,,0.00,4.000000,,2013-09-05 02:42:00,
2013-09-04 20:52:00,53.0,43.0,-100.00,SW,219,2.0,8.0,68,0.00,,,0.00,4.000000,,2013-09-05 02:52:00,
2013-09-04 21:22:00,52.0,42.0,-100.00,WNW,289,4.0,8.0,69,0.00,,,0.00,0.000000,,2013-09-05 03:22:00,
2013-09-04 21:34:00,52.0,42.0,-100.00,WNW,289,4.0,8.0,69,0.00,,,0.00,0.000000,,2013-09-05 03:34:00,
2013-09-04 21:45:00,52.0,42.0,-100.00,WNW,289,4.0,8.0,69,0.00,,,0.00,0.000000,,2013-09-05 03:45:00,
2013-09-04 21:54:00,52.0,42.0,-100.00,WNW,289,4.0,8.0,69,0.00,,,0.00,0.000000,,2013-09-05 03:54:00,
2013-09-04 22:24:00,51.0,43.0,-100.00,SE,145,3.0,6.0,74,0.00,,,0.00,0.000000,,2013-09-05 04:24:00,
2013-09-04 22:34:00,51.0,43.0,-100.00,SE,145,3.0,6.0,74,0.00,,,0.00,0.000000,,2013-09-05 04:34:00,
2013-09-04 22:44:00,51.0,43.0,-100.00,SE,145,3.0,6.0,74,0.00,,,0.00,0.000000,,2013-09-05 04:44:00,
2013-09-04 22:53:00,51.0,43.0,-100.00,SE,145,3.0,6.0,74,0.00,,,0.00,0.000000,,2013-09-05 04:53:00,
2013-09-04 23:23:00,50.0,43.0,-100.00,ENE,75,2.0,4.0,78,0.00,,,0.00,0.000000,,2013-09-05 05:23:00,
2013-09-04 23:34:00,50.0,43.0,-100.00,ENE,75,2.0,4.0,78,0.00,,,0.00,0.000000,,2013-09-05 05:34:00,
2013-09-04 23:43:00,50.0,43.0,-100.00,ENE,75,2.0,4.0,78,0.00,,,0.00,0.000000,,2013-09-05 05:43:00,
2013-09-04 23:52:00,50.0,43.0,-100.00,ENE,75,2.0,4.0,78,0.00,,,0.00,0.000000,,2013-09-05 05:52:00,